<?xml version="1.0" encoding="UTF-8" standalone="yes"?>
<gpx version="1.1" creator="MagicMaps Tour Explorer"
     xmlns:xsi="http://www.w3.org/2001/XMLSchema-instance"
     xmlns="http://www.topografix.com/GPX/1/1">
  <trk>
    <name>paternkofel_scharten_ks</name>
    <trkseg>
      <trkpt lat="46.612223001" lon="12.296415006">
        <ele>2326.0</ele>
        <time>1970-01-01T01:00:00</time>
      </trkpt>
      <trkpt lat="46.612964001" lon="12.296623006">
        <ele>2323.2</ele>
        <time>1970-01-01T01:00:00</time>
      </trkpt>
      <trkpt lat="46.613277001" lon="12.296585006">
        <ele>2324.1</ele>
        <time>1970-01-01T01:00:00</time>
      </trkpt>
      <trkpt lat="46.613614001" lon="12.297603006">
        <ele>2323.2</ele>
        <time>1970-01-01T01:00:00</time>
      </trkpt>
      <trkpt lat="46.613690001" lon="12.298212006">
        <ele>2322.2</ele>
        <time>1970-01-01T01:00:00</time>
      </trkpt>
      <trkpt lat="46.613670001" lon="12.298849006">
        <ele>2324.1</ele>
        <time>1970-01-01T01:00:00</time>
      </trkpt>
      <trkpt lat="46.613736001" lon="12.299491006">
        <ele>2323.2</ele>
        <time>1970-01-01T01:00:00</time>
      </trkpt>
      <trkpt lat="46.614124001" lon="12.300698006">
        <ele>2322.7</ele>
        <time>1970-01-01T01:00:00</time>
      </trkpt>
      <trkpt lat="46.614308001" lon="12.301773006">
        <ele>2319.3</ele>
        <time>1970-01-01T01:00:00</time>
      </trkpt>
      <trkpt lat="46.614247001" lon="12.302459006">
        <ele>2317.4</ele>
        <time>1970-01-01T01:00:00</time>
      </trkpt>
      <trkpt lat="46.614240001" lon="12.303759006">
        <ele>2313.1</ele>
        <time>1970-01-01T01:00:00</time>
      </trkpt>
      <trkpt lat="46.614215001" lon="12.304079006">
        <ele>2312.6</ele>
        <time>1970-01-01T01:00:00</time>
      </trkpt>
      <trkpt lat="46.614141001" lon="12.304338006">
        <ele>2312.6</ele>
        <time>1970-01-01T01:00:00</time>
      </trkpt>
      <trkpt lat="46.614012001" lon="12.304570006">
        <ele>2311.1</ele>
        <time>1970-01-01T01:00:00</time>
      </trkpt>
      <trkpt lat="46.613720001" lon="12.304908006">
        <ele>2308.7</ele>
        <time>1970-01-01T01:00:00</time>
      </trkpt>
      <trkpt lat="46.613618001" lon="12.305082006">
        <ele>2309.2</ele>
        <time>1970-01-01T01:00:00</time>
      </trkpt>
      <trkpt lat="46.613562001" lon="12.306474006">
        <ele>2314.5</ele>
        <time>1970-01-01T01:00:00</time>
      </trkpt>
      <trkpt lat="46.613493001" lon="12.306841006">
        <ele>2316.9</ele>
        <time>1970-01-01T01:00:00</time>
      </trkpt>
      <trkpt lat="46.613548001" lon="12.307369006">
        <ele>2317.9</ele>
        <time>1970-01-01T01:00:00</time>
      </trkpt>
      <trkpt lat="46.613954001" lon="12.308337006">
        <ele>2323.2</ele>
        <time>1970-01-01T01:00:00</time>
      </trkpt>
      <trkpt lat="46.614165001" lon="12.308460006">
        <ele>2324.1</ele>
        <time>1970-01-01T01:00:00</time>
      </trkpt>
      <trkpt lat="46.614951001" lon="12.308751006">
        <ele>2331.8</ele>
        <time>1970-01-01T01:00:00</time>
      </trkpt>
      <trkpt lat="46.615126001" lon="12.308860006">
        <ele>2332.8</ele>
        <time>1970-01-01T01:00:00</time>
      </trkpt>
      <trkpt lat="46.615278001" lon="12.309098006">
        <ele>2334.2</ele>
        <time>1970-01-01T01:00:00</time>
      </trkpt>
      <trkpt lat="46.615570001" lon="12.309429006">
        <ele>2336.6</ele>
        <time>1970-01-01T01:00:00</time>
      </trkpt>
      <trkpt lat="46.615906001" lon="12.309651006">
        <ele>2339.5</ele>
        <time>1970-01-01T01:00:00</time>
      </trkpt>
      <trkpt lat="46.616576001" lon="12.309934006">
        <ele>2342.4</ele>
        <time>1970-01-01T01:00:00</time>
      </trkpt>
      <trkpt lat="46.617270001" lon="12.310639006">
        <ele>2341.4</ele>
        <time>1970-01-01T01:00:00</time>
      </trkpt>
      <trkpt lat="46.617631001" lon="12.310830006">
        <ele>2344.3</ele>
        <time>1970-01-01T01:00:00</time>
      </trkpt>
      <trkpt lat="46.617833001" lon="12.311002006">
        <ele>2346.7</ele>
        <time>1970-01-01T01:00:00</time>
      </trkpt>
      <trkpt lat="46.618204001" lon="12.311526006">
        <ele>2349.6</ele>
        <time>1970-01-01T01:00:00</time>
      </trkpt>
      <trkpt lat="46.618185001" lon="12.311427006">
        <ele>2350.1</ele>
        <time>1970-01-01T01:00:00</time>
      </trkpt>
      <trkpt lat="46.618450001" lon="12.311242006">
        <ele>2353.4</ele>
        <time>1970-01-01T01:00:00</time>
      </trkpt>
      <trkpt lat="46.618548001" lon="12.310987006">
        <ele>2360.2</ele>
        <time>1970-01-01T01:00:00</time>
      </trkpt>
      <trkpt lat="46.618724001" lon="12.310854006">
        <ele>2367.4</ele>
        <time>1970-01-01T01:00:00</time>
      </trkpt>
      <trkpt lat="46.618920001" lon="12.310470006">
        <ele>2381.8</ele>
        <time>1970-01-01T01:00:00</time>
      </trkpt>
      <trkpt lat="46.619005001" lon="12.310446006">
        <ele>2384.7</ele>
        <time>1970-01-01T01:00:00</time>
      </trkpt>
      <trkpt lat="46.619060001" lon="12.310374006">
        <ele>2386.6</ele>
        <time>1970-01-01T01:00:00</time>
      </trkpt>
      <trkpt lat="46.619309001" lon="12.310293006">
        <ele>2393.3</ele>
        <time>1970-01-01T01:00:00</time>
      </trkpt>
      <trkpt lat="46.619466001" lon="12.310317006">
        <ele>2398.1</ele>
        <time>1970-01-01T01:00:00</time>
      </trkpt>
      <trkpt lat="46.619781001" lon="12.310251006">
        <ele>2407.3</ele>
        <time>1970-01-01T01:00:00</time>
      </trkpt>
      <trkpt lat="46.620170001" lon="12.310342006">
        <ele>2414.5</ele>
        <time>1970-01-01T01:00:00</time>
      </trkpt>
      <trkpt lat="46.620383001" lon="12.310352006">
        <ele>2419.3</ele>
        <time>1970-01-01T01:00:00</time>
      </trkpt>
      <trkpt lat="46.620382001" lon="12.310386006">
        <ele>2419.3</ele>
        <time>1970-01-01T01:00:00</time>
      </trkpt>
      <trkpt lat="46.620721001" lon="12.310459006">
        <ele>2425.1</ele>
        <time>1970-01-01T01:00:00</time>
      </trkpt>
      <trkpt lat="46.621018001" lon="12.310573006">
        <ele>2427.5</ele>
        <time>1970-01-01T01:00:00</time>
      </trkpt>
      <trkpt lat="46.621304001" lon="12.310730006">
        <ele>2433.2</ele>
        <time>1970-01-01T01:00:00</time>
      </trkpt>
      <trkpt lat="46.622018001" lon="12.311209006">
        <ele>2444.3</ele>
        <time>1970-01-01T01:00:00</time>
      </trkpt>
      <trkpt lat="46.622366001" lon="12.311500006">
        <ele>2454.4</ele>
        <time>1970-01-01T01:00:00</time>
      </trkpt>
      <trkpt lat="46.622535001" lon="12.311428006">
        <ele>2456.8</ele>
        <time>1970-01-01T01:00:00</time>
      </trkpt>
      <trkpt lat="46.622553001" lon="12.311467006">
        <ele>2456.8</ele>
        <time>1970-01-01T01:00:00</time>
      </trkpt>
      <trkpt lat="46.622634001" lon="12.311468006">
        <ele>2457.7</ele>
        <time>1970-01-01T01:00:00</time>
      </trkpt>
      <trkpt lat="46.622574001" lon="12.311464006">
        <ele>2456.8</ele>
        <time>1970-01-01T01:00:00</time>
      </trkpt>
      <trkpt lat="46.623365001" lon="12.311905006">
        <ele>2450.5</ele>
        <time>1970-01-01T01:00:00</time>
      </trkpt>
      <trkpt lat="46.623784001" lon="12.312241006">
        <ele>2442.8</ele>
        <time>1970-01-01T01:00:00</time>
      </trkpt>
      <trkpt lat="46.624052001" lon="12.312547006">
        <ele>2431.3</ele>
        <time>1970-01-01T01:00:00</time>
      </trkpt>
      <trkpt lat="46.624418001" lon="12.312906006">
        <ele>2421.7</ele>
        <time>1970-01-01T01:00:00</time>
      </trkpt>
      <trkpt lat="46.624715001" lon="12.313022006">
        <ele>2418.3</ele>
        <time>1970-01-01T01:00:00</time>
      </trkpt>
      <trkpt lat="46.624876001" lon="12.313007006">
        <ele>2417.4</ele>
        <time>1970-01-01T01:00:00</time>
      </trkpt>
      <trkpt lat="46.625096001" lon="12.312871006">
        <ele>2415.0</ele>
        <time>1970-01-01T01:00:00</time>
      </trkpt>
      <trkpt lat="46.626039001" lon="12.312777006">
        <ele>2403.9</ele>
        <time>1970-01-01T01:00:00</time>
      </trkpt>
      <trkpt lat="46.626265001" lon="12.312644006">
        <ele>2401.5</ele>
        <time>1970-01-01T01:00:00</time>
      </trkpt>
      <trkpt lat="46.626639001" lon="12.312320006">
        <ele>2401.0</ele>
        <time>1970-01-01T01:00:00</time>
      </trkpt>
      <trkpt lat="46.627239001" lon="12.311693006">
        <ele>2403.4</ele>
        <time>1970-01-01T01:00:00</time>
      </trkpt>
      <trkpt lat="46.627788001" lon="12.311452006">
        <ele>2399.1</ele>
        <time>1970-01-01T01:00:00</time>
      </trkpt>
      <trkpt lat="46.627913001" lon="12.311371006">
        <ele>2393.3</ele>
        <time>1970-01-01T01:00:00</time>
      </trkpt>
      <trkpt lat="46.628315001" lon="12.311356006">
        <ele>2384.2</ele>
        <time>1970-01-01T01:00:00</time>
      </trkpt>
      <trkpt lat="46.628329001" lon="12.311252006">
        <ele>2382.8</ele>
        <time>1970-01-01T01:00:00</time>
      </trkpt>
      <trkpt lat="46.628273001" lon="12.311139006">
        <ele>2379.9</ele>
        <time>1970-01-01T01:00:00</time>
      </trkpt>
      <trkpt lat="46.628508001" lon="12.310966006">
        <ele>2372.7</ele>
        <time>1970-01-01T01:00:00</time>
      </trkpt>
      <trkpt lat="46.628855001" lon="12.311026006">
        <ele>2365.9</ele>
        <time>1970-01-01T01:00:00</time>
      </trkpt>
      <trkpt lat="46.629110001" lon="12.310991006">
        <ele>2366.9</ele>
        <time>1970-01-01T01:00:00</time>
      </trkpt>
      <trkpt lat="46.629526001" lon="12.311030006">
        <ele>2366.4</ele>
        <time>1970-01-01T01:00:00</time>
      </trkpt>
      <trkpt lat="46.629702001" lon="12.310960006">
        <ele>2368.3</ele>
        <time>1970-01-01T01:00:00</time>
      </trkpt>
      <trkpt lat="46.630315001" lon="12.310558006">
        <ele>2370.7</ele>
        <time>1970-01-01T01:00:00</time>
      </trkpt>
      <trkpt lat="46.631372001" lon="12.310620006">
        <ele>2376.5</ele>
        <time>1970-01-01T01:00:00</time>
      </trkpt>
      <trkpt lat="46.631578001" lon="12.310662006">
        <ele>2377.5</ele>
        <time>1970-01-01T01:00:00</time>
      </trkpt>
      <trkpt lat="46.632290001" lon="12.311098006">
        <ele>2373.2</ele>
        <time>1970-01-01T01:00:00</time>
      </trkpt>
      <trkpt lat="46.633284001" lon="12.311511006">
        <ele>2370.7</ele>
        <time>1970-01-01T01:00:00</time>
      </trkpt>
      <trkpt lat="46.633494001" lon="12.311685006">
        <ele>2366.9</ele>
        <time>1970-01-01T01:00:00</time>
      </trkpt>
      <trkpt lat="46.633978001" lon="12.311877006">
        <ele>2359.7</ele>
        <time>1970-01-01T01:00:00</time>
      </trkpt>
      <trkpt lat="46.634137001" lon="12.311912006">
        <ele>2360.7</ele>
        <time>1970-01-01T01:00:00</time>
      </trkpt>
      <trkpt lat="46.634635001" lon="12.311616006">
        <ele>2365.9</ele>
        <time>1970-01-01T01:00:00</time>
      </trkpt>
      <trkpt lat="46.635149001" lon="12.311118006">
        <ele>2375.6</ele>
        <time>1970-01-01T01:00:00</time>
      </trkpt>
      <trkpt lat="46.635205001" lon="12.311257006">
        <ele>2378.0</ele>
        <time>1970-01-01T01:00:00</time>
      </trkpt>
      <trkpt lat="46.635194001" lon="12.311176006">
        <ele>2379.4</ele>
        <time>1970-01-01T01:00:00</time>
      </trkpt>
      <trkpt lat="46.635295001" lon="12.311024006">
        <ele>2382.8</ele>
        <time>1970-01-01T01:00:00</time>
      </trkpt>
      <trkpt lat="46.635324001" lon="12.311104006">
        <ele>2386.1</ele>
        <time>1970-01-01T01:00:00</time>
      </trkpt>
      <trkpt lat="46.635302001" lon="12.311194006">
        <ele>2387.6</ele>
        <time>1970-01-01T01:00:00</time>
      </trkpt>
      <trkpt lat="46.635576001" lon="12.310920006">
        <ele>2395.7</ele>
        <time>1970-01-01T01:00:00</time>
      </trkpt>
      <trkpt lat="46.635621001" lon="12.311044006">
        <ele>2396.7</ele>
        <time>1970-01-01T01:00:00</time>
      </trkpt>
      <trkpt lat="46.635877001" lon="12.311032006">
        <ele>2401.0</ele>
        <time>1970-01-01T01:00:00</time>
      </trkpt>
      <trkpt lat="46.636220001" lon="12.311094006">
        <ele>2399.1</ele>
        <time>1970-01-01T01:00:00</time>
      </trkpt>
      <trkpt lat="46.636361001" lon="12.311059006">
        <ele>2400.1</ele>
        <time>1970-01-01T01:00:00</time>
      </trkpt>
      <trkpt lat="46.636501001" lon="12.310936006">
        <ele>2403.0</ele>
        <time>1970-01-01T01:00:00</time>
      </trkpt>
      <trkpt lat="46.636580001" lon="12.310944006">
        <ele>2405.4</ele>
        <time>1970-01-01T01:00:00</time>
      </trkpt>
      <trkpt lat="46.636544001" lon="12.311103006">
        <ele>2408.2</ele>
        <time>1970-01-01T01:00:00</time>
      </trkpt>
      <trkpt lat="46.636628001" lon="12.311273006">
        <ele>2409.7</ele>
        <time>1970-01-01T01:00:00</time>
      </trkpt>
      <trkpt lat="46.636718001" lon="12.311247006">
        <ele>2411.1</ele>
        <time>1970-01-01T01:00:00</time>
      </trkpt>
      <trkpt lat="46.636710001" lon="12.311493006">
        <ele>2414.0</ele>
        <time>1970-01-01T01:00:00</time>
      </trkpt>
      <trkpt lat="46.636608001" lon="12.311720006">
        <ele>2419.3</ele>
        <time>1970-01-01T01:00:00</time>
      </trkpt>
      <trkpt lat="46.636466001" lon="12.311814006">
        <ele>2421.7</ele>
        <time>1970-01-01T01:00:00</time>
      </trkpt>
      <trkpt lat="46.636271001" lon="12.311823006">
        <ele>2421.2</ele>
        <time>1970-01-01T01:00:00</time>
      </trkpt>
      <trkpt lat="46.636264001" lon="12.311878006">
        <ele>2421.7</ele>
        <time>1970-01-01T01:00:00</time>
      </trkpt>
      <trkpt lat="46.636080001" lon="12.311985006">
        <ele>2425.5</ele>
        <time>1970-01-01T01:00:00</time>
      </trkpt>
      <trkpt lat="46.635924001" lon="12.312233006">
        <ele>2435.2</ele>
        <time>1970-01-01T01:00:00</time>
      </trkpt>
      <trkpt lat="46.635701001" lon="12.312279006">
        <ele>2440.4</ele>
        <time>1970-01-01T01:00:00</time>
      </trkpt>
      <trkpt lat="46.635522001" lon="12.312377006">
        <ele>2443.8</ele>
        <time>1970-01-01T01:00:00</time>
      </trkpt>
      <trkpt lat="46.635443001" lon="12.312455006">
        <ele>2443.8</ele>
        <time>1970-01-01T01:00:00</time>
      </trkpt>
      <trkpt lat="46.635083001" lon="12.312511006">
        <ele>2445.7</ele>
        <time>1970-01-01T01:00:00</time>
      </trkpt>
      <trkpt lat="46.634829001" lon="12.312885006">
        <ele>2447.7</ele>
        <time>1970-01-01T01:00:00</time>
      </trkpt>
      <trkpt lat="46.634809001" lon="12.312838006">
        <ele>2447.2</ele>
        <time>1970-01-01T01:00:00</time>
      </trkpt>
      <trkpt lat="46.634602001" lon="12.312919006">
        <ele>2446.7</ele>
        <time>1970-01-01T01:00:00</time>
      </trkpt>
      <trkpt lat="46.634500001" lon="12.313080006">
        <ele>2443.8</ele>
        <time>1970-01-01T01:00:00</time>
      </trkpt>
      <trkpt lat="46.634511001" lon="12.313061006">
        <ele>2440.4</ele>
        <time>1970-01-01T01:00:00</time>
      </trkpt>
      <trkpt lat="46.634539001" lon="12.313072006">
        <ele>2441.9</ele>
        <time>1970-01-01T01:00:00</time>
      </trkpt>
      <trkpt lat="46.634497001" lon="12.313013006">
        <ele>2441.4</ele>
        <time>1970-01-01T01:00:00</time>
      </trkpt>
      <trkpt lat="46.634431001" lon="12.312995006">
        <ele>2439.5</ele>
        <time>1970-01-01T01:00:00</time>
      </trkpt>
      <trkpt lat="46.634259012" lon="12.313125453">
        <ele>2408.1</ele>
        <time>1970-01-01T01:00:00</time>
      </trkpt>
      <trkpt lat="46.634039001" lon="12.313148006">
        <ele>2455.3</ele>
        <time>1970-01-01T01:00:00</time>
      </trkpt>
      <trkpt lat="46.633976001" lon="12.313258006">
        <ele>2457.3</ele>
        <time>1970-01-01T01:00:00</time>
      </trkpt>
      <trkpt lat="46.634020001" lon="12.313295006">
        <ele>2461.1</ele>
        <time>1970-01-01T01:00:00</time>
      </trkpt>
      <trkpt lat="46.633949001" lon="12.313401006">
        <ele>2461.6</ele>
        <time>1970-01-01T01:00:00</time>
      </trkpt>
      <trkpt lat="46.633863001" lon="12.313316006">
        <ele>2465.4</ele>
        <time>1970-01-01T01:00:00</time>
      </trkpt>
      <trkpt lat="46.633794001" lon="12.313354006">
        <ele>2466.9</ele>
        <time>1970-01-01T01:00:00</time>
      </trkpt>
      <trkpt lat="46.633765001" lon="12.313452006">
        <ele>2470.2</ele>
        <time>1970-01-01T01:00:00</time>
      </trkpt>
      <trkpt lat="46.633689001" lon="12.313505006">
        <ele>2473.1</ele>
        <time>1970-01-01T01:00:00</time>
      </trkpt>
      <trkpt lat="46.633661001" lon="12.313277006">
        <ele>2472.6</ele>
        <time>1970-01-01T01:00:00</time>
      </trkpt>
      <trkpt lat="46.633667001" lon="12.313376006">
        <ele>2472.6</ele>
        <time>1970-01-01T01:00:00</time>
      </trkpt>
      <trkpt lat="46.631375001" lon="12.315041006">
        <ele>2544.7</ele>
        <time>1970-01-01T01:00:00</time>
      </trkpt>
      <trkpt lat="46.631402001" lon="12.315118006">
        <ele>2543.8</ele>
        <time>1970-01-01T01:00:00</time>
      </trkpt>
      <trkpt lat="46.631341001" lon="12.315126006">
        <ele>2543.3</ele>
        <time>1970-01-01T01:00:00</time>
      </trkpt>
      <trkpt lat="46.631348001" lon="12.315082006">
        <ele>2546.7</ele>
        <time>1970-01-01T01:00:00</time>
      </trkpt>
      <trkpt lat="46.631267001" lon="12.315112006">
        <ele>2553.4</ele>
        <time>1970-01-01T01:00:00</time>
      </trkpt>
      <trkpt lat="46.631344001" lon="12.314959006">
        <ele>2561.1</ele>
        <time>1970-01-01T01:00:00</time>
      </trkpt>
      <trkpt lat="46.631231001" lon="12.314944006">
        <ele>2569.3</ele>
        <time>1970-01-01T01:00:00</time>
      </trkpt>
      <trkpt lat="46.631118001" lon="12.315025006">
        <ele>2572.6</ele>
        <time>1970-01-01T01:00:00</time>
      </trkpt>
      <trkpt lat="46.631170001" lon="12.315072006">
        <ele>2574.1</ele>
        <time>1970-01-01T01:00:00</time>
      </trkpt>
      <trkpt lat="46.630873001" lon="12.315410006">
        <ele>2592.8</ele>
        <time>1970-01-01T01:00:00</time>
      </trkpt>
      <trkpt lat="46.630803001" lon="12.315545006">
        <ele>2602.9</ele>
        <time>1970-01-01T01:00:00</time>
      </trkpt>
      <trkpt lat="46.630708001" lon="12.315752006">
        <ele>2611.1</ele>
        <time>1970-01-01T01:00:00</time>
      </trkpt>
      <trkpt lat="46.630577001" lon="12.315852006">
        <ele>2617.8</ele>
        <time>1970-01-01T01:00:00</time>
      </trkpt>
      <trkpt lat="46.630671001" lon="12.315884006">
        <ele>2620.7</ele>
        <time>1970-01-01T01:00:00</time>
      </trkpt>
      <trkpt lat="46.630486001" lon="12.315952006">
        <ele>2627.4</ele>
        <time>1970-01-01T01:00:00</time>
      </trkpt>
      <trkpt lat="46.630429001" lon="12.316055006">
        <ele>2631.3</ele>
        <time>1970-01-01T01:00:00</time>
      </trkpt>
      <trkpt lat="46.630447001" lon="12.316097006">
        <ele>2635.6</ele>
        <time>1970-01-01T01:00:00</time>
      </trkpt>
      <trkpt lat="46.630318001" lon="12.316053006">
        <ele>2639.0</ele>
        <time>1970-01-01T01:00:00</time>
      </trkpt>
      <trkpt lat="46.630365001" lon="12.316035006">
        <ele>2642.3</ele>
        <time>1970-01-01T01:00:00</time>
      </trkpt>
      <trkpt lat="46.630156047" lon="12.315879716">
        <ele>2696.1</ele>
        <time>1970-01-01T01:00:00</time>
      </trkpt>
      <trkpt lat="46.630136001" lon="12.315992006">
        <ele>2642.8</ele>
        <time>1970-01-01T01:00:00</time>
      </trkpt>
      <trkpt lat="46.630094001" lon="12.316353006">
        <ele>2652.4</ele>
        <time>1970-01-01T01:00:00</time>
      </trkpt>
      <trkpt lat="46.629995001" lon="12.316406006">
        <ele>2651.5</ele>
        <time>1970-01-01T01:00:00</time>
      </trkpt>
      <trkpt lat="46.629865001" lon="12.316643006">
        <ele>2651.0</ele>
        <time>1970-01-01T01:00:00</time>
      </trkpt>
      <trkpt lat="46.629906001" lon="12.316408006">
        <ele>2656.3</ele>
        <time>1970-01-01T01:00:00</time>
      </trkpt>
      <trkpt lat="46.629824001" lon="12.316667006">
        <ele>2657.7</ele>
        <time>1970-01-01T01:00:00</time>
      </trkpt>
      <trkpt lat="46.629927001" lon="12.316765006">
        <ele>2664.4</ele>
        <time>1970-01-01T01:00:00</time>
      </trkpt>
      <trkpt lat="46.629920001" lon="12.316612006">
        <ele>2664.9</ele>
        <time>1970-01-01T01:00:00</time>
      </trkpt>
      <trkpt lat="46.629758001" lon="12.315994006">
        <ele>2692.3</ele>
        <time>1970-01-01T01:00:00</time>
      </trkpt>
      <trkpt lat="46.629973001" lon="12.316029006">
        <ele>2698.1</ele>
        <time>1970-01-01T01:00:00</time>
      </trkpt>
      <trkpt lat="46.629955001" lon="12.315959006">
        <ele>2700.5</ele>
        <time>1970-01-01T01:00:00</time>
      </trkpt>
      <trkpt lat="46.629968001" lon="12.315988006">
        <ele>2701.4</ele>
        <time>1970-01-01T01:00:00</time>
      </trkpt>
      <trkpt lat="46.629975001" lon="12.315953006">
        <ele>2703.8</ele>
        <time>1970-01-01T01:00:00</time>
      </trkpt>
      <trkpt lat="46.630035001" lon="12.315973006">
        <ele>2706.2</ele>
        <time>1970-01-01T01:00:00</time>
      </trkpt>
      <trkpt lat="46.629952001" lon="12.315916006">
        <ele>2709.1</ele>
        <time>1970-01-01T01:00:00</time>
      </trkpt>
      <trkpt lat="46.629928001" lon="12.315836006">
        <ele>2711.5</ele>
        <time>1970-01-01T01:00:00</time>
      </trkpt>
      <trkpt lat="46.629859001" lon="12.315836006">
        <ele>2712.0</ele>
        <time>1970-01-01T01:00:00</time>
      </trkpt>
      <trkpt lat="46.629880001" lon="12.315696006">
        <ele>2720.7</ele>
        <time>1970-01-01T01:00:00</time>
      </trkpt>
      <trkpt lat="46.629754001" lon="12.315597006">
        <ele>2723.6</ele>
        <time>1970-01-01T01:00:00</time>
      </trkpt>
      <trkpt lat="46.630023001" lon="12.315486006">
        <ele>2731.7</ele>
        <time>1970-01-01T01:00:00</time>
      </trkpt>
      <trkpt lat="46.630018001" lon="12.315440006">
        <ele>2732.7</ele>
        <time>1970-01-01T01:00:00</time>
      </trkpt>
      <trkpt lat="46.630334001" lon="12.315239006">
        <ele>2746.1</ele>
        <time>1970-01-01T01:00:00</time>
      </trkpt>
      <trkpt lat="46.630352001" lon="12.315169006">
        <ele>2749.5</ele>
        <time>1970-01-01T01:00:00</time>
      </trkpt>
      <trkpt lat="46.630420001" lon="12.315157006">
        <ele>2751.4</ele>
        <time>1970-01-01T01:00:00</time>
      </trkpt>
      <trkpt lat="46.630362001" lon="12.315114006">
        <ele>2751.4</ele>
        <time>1970-01-01T01:00:00</time>
      </trkpt>
      <trkpt lat="46.630351001" lon="12.315203006">
        <ele>2750.0</ele>
        <time>1970-01-01T01:00:00</time>
      </trkpt>
      <trkpt lat="46.630014001" lon="12.315437006">
        <ele>2735.1</ele>
        <time>1970-01-01T01:00:00</time>
      </trkpt>
      <trkpt lat="46.629949001" lon="12.315515006">
        <ele>2729.3</ele>
        <time>1970-01-01T01:00:00</time>
      </trkpt>
      <trkpt lat="46.629889001" lon="12.315546006">
        <ele>2728.8</ele>
        <time>1970-01-01T01:00:00</time>
      </trkpt>
      <trkpt lat="46.629911001" lon="12.315609006">
        <ele>2725.0</ele>
        <time>1970-01-01T01:00:00</time>
      </trkpt>
      <trkpt lat="46.629832001" lon="12.315644006">
        <ele>2722.6</ele>
        <time>1970-01-01T01:00:00</time>
      </trkpt>
      <trkpt lat="46.629866001" lon="12.315685006">
        <ele>2720.7</ele>
        <time>1970-01-01T01:00:00</time>
      </trkpt>
      <trkpt lat="46.629739001" lon="12.315746006">
        <ele>2718.3</ele>
        <time>1970-01-01T01:00:00</time>
      </trkpt>
      <trkpt lat="46.629925001" lon="12.315824006">
        <ele>2713.0</ele>
        <time>1970-01-01T01:00:00</time>
      </trkpt>
      <trkpt lat="46.630016001" lon="12.315998006">
        <ele>2708.2</ele>
        <time>1970-01-01T01:00:00</time>
      </trkpt>
      <trkpt lat="46.629947001" lon="12.315971006">
        <ele>2703.4</ele>
        <time>1970-01-01T01:00:00</time>
      </trkpt>
      <trkpt lat="46.629658001" lon="12.316114006">
        <ele>2680.3</ele>
        <time>1970-01-01T01:00:00</time>
      </trkpt>
      <trkpt lat="46.629776001" lon="12.316113006">
        <ele>2679.8</ele>
        <time>1970-01-01T01:00:00</time>
      </trkpt>
      <trkpt lat="46.629807001" lon="12.316155006">
        <ele>2676.0</ele>
        <time>1970-01-01T01:00:00</time>
      </trkpt>
      <trkpt lat="46.629719001" lon="12.316296006">
        <ele>2667.8</ele>
        <time>1970-01-01T01:00:00</time>
      </trkpt>
      <trkpt lat="46.629747001" lon="12.316387006">
        <ele>2667.8</ele>
        <time>1970-01-01T01:00:00</time>
      </trkpt>
      <trkpt lat="46.629849001" lon="12.316357006">
        <ele>2667.3</ele>
        <time>1970-01-01T01:00:00</time>
      </trkpt>
      <trkpt lat="46.629839001" lon="12.316462006">
        <ele>2661.5</ele>
        <time>1970-01-01T01:00:00</time>
      </trkpt>
      <trkpt lat="46.629941001" lon="12.316608006">
        <ele>2655.8</ele>
        <time>1970-01-01T01:00:00</time>
      </trkpt>
      <trkpt lat="46.629845001" lon="12.316755006">
        <ele>2655.3</ele>
        <time>1970-01-01T01:00:00</time>
      </trkpt>
      <trkpt lat="46.629819001" lon="12.317284007">
        <ele>2651.5</ele>
        <time>1970-01-01T01:00:00</time>
      </trkpt>
      <trkpt lat="46.629831001" lon="12.317231007">
        <ele>2651.9</ele>
        <time>1970-01-01T01:00:00</time>
      </trkpt>
      <trkpt lat="46.629784001" lon="12.317382007">
        <ele>2647.6</ele>
        <time>1970-01-01T01:00:00</time>
      </trkpt>
      <trkpt lat="46.629725001" lon="12.317372007">
        <ele>2648.1</ele>
        <time>1970-01-01T01:00:00</time>
      </trkpt>
      <trkpt lat="46.629699001" lon="12.317692007">
        <ele>2653.4</ele>
        <time>1970-01-01T01:00:00</time>
      </trkpt>
      <trkpt lat="46.629573001" lon="12.318090007">
        <ele>2653.4</ele>
        <time>1970-01-01T01:00:00</time>
      </trkpt>
      <trkpt lat="46.629527001" lon="12.318061007">
        <ele>2653.9</ele>
        <time>1970-01-01T01:00:00</time>
      </trkpt>
      <trkpt lat="46.629492001" lon="12.318110007">
        <ele>2654.3</ele>
        <time>1970-01-01T01:00:00</time>
      </trkpt>
      <trkpt lat="46.629459001" lon="12.318299007">
        <ele>2660.6</ele>
        <time>1970-01-01T01:00:00</time>
      </trkpt>
      <trkpt lat="46.629363001" lon="12.318197007">
        <ele>2662.0</ele>
        <time>1970-01-01T01:00:00</time>
      </trkpt>
      <trkpt lat="46.629335001" lon="12.318245007">
        <ele>2662.0</ele>
        <time>1970-01-01T01:00:00</time>
      </trkpt>
      <trkpt lat="46.629305001" lon="12.318590007">
        <ele>2668.3</ele>
        <time>1970-01-01T01:00:00</time>
      </trkpt>
      <trkpt lat="46.629350001" lon="12.318563007">
        <ele>2674.5</ele>
        <time>1970-01-01T01:00:00</time>
      </trkpt>
      <trkpt lat="46.629334001" lon="12.318671007">
        <ele>2675.5</ele>
        <time>1970-01-01T01:00:00</time>
      </trkpt>
      <trkpt lat="46.629279001" lon="12.318653007">
        <ele>2677.9</ele>
        <time>1970-01-01T01:00:00</time>
      </trkpt>
      <trkpt lat="46.629234001" lon="12.318684007">
        <ele>2678.9</ele>
        <time>1970-01-01T01:00:00</time>
      </trkpt>
      <trkpt lat="46.629236001" lon="12.318847007">
        <ele>2680.8</ele>
        <time>1970-01-01T01:00:00</time>
      </trkpt>
      <trkpt lat="46.629241001" lon="12.318829007">
        <ele>2684.1</ele>
        <time>1970-01-01T01:00:00</time>
      </trkpt>
      <trkpt lat="46.629151001" lon="12.318825007">
        <ele>2686.1</ele>
        <time>1970-01-01T01:00:00</time>
      </trkpt>
      <trkpt lat="46.629048001" lon="12.318882007">
        <ele>2685.6</ele>
        <time>1970-01-01T01:00:00</time>
      </trkpt>
      <trkpt lat="46.629109001" lon="12.319061007">
        <ele>2675.0</ele>
        <time>1970-01-01T01:00:00</time>
      </trkpt>
      <trkpt lat="46.629120001" lon="12.319219007">
        <ele>2670.2</ele>
        <time>1970-01-01T01:00:00</time>
      </trkpt>
      <trkpt lat="46.629190001" lon="12.319180007">
        <ele>2669.2</ele>
        <time>1970-01-01T01:00:00</time>
      </trkpt>
      <trkpt lat="46.629242001" lon="12.319230007">
        <ele>2669.2</ele>
        <time>1970-01-01T01:00:00</time>
      </trkpt>
      <trkpt lat="46.629269001" lon="12.319294007">
        <ele>2673.6</ele>
        <time>1970-01-01T01:00:00</time>
      </trkpt>
      <trkpt lat="46.629182001" lon="12.319094007">
        <ele>2677.9</ele>
        <time>1970-01-01T01:00:00</time>
      </trkpt>
      <trkpt lat="46.629222001" lon="12.319411007">
        <ele>2680.8</ele>
        <time>1970-01-01T01:00:00</time>
      </trkpt>
      <trkpt lat="46.629238001" lon="12.319429007">
        <ele>2683.7</ele>
        <time>1970-01-01T01:00:00</time>
      </trkpt>
      <trkpt lat="46.629211001" lon="12.319659007">
        <ele>2688.5</ele>
        <time>1970-01-01T01:00:00</time>
      </trkpt>
      <trkpt lat="46.629272001" lon="12.319723007">
        <ele>2694.7</ele>
        <time>1970-01-01T01:00:00</time>
      </trkpt>
      <trkpt lat="46.629321001" lon="12.319823007">
        <ele>2697.6</ele>
        <time>1970-01-01T01:00:00</time>
      </trkpt>
      <trkpt lat="46.629343001" lon="12.320065007">
        <ele>2681.7</ele>
        <time>1970-01-01T01:00:00</time>
      </trkpt>
      <trkpt lat="46.629402001" lon="12.320188007">
        <ele>2680.3</ele>
        <time>1970-01-01T01:00:00</time>
      </trkpt>
      <trkpt lat="46.629414001" lon="12.320367007">
        <ele>2676.0</ele>
        <time>1970-01-01T01:00:00</time>
      </trkpt>
      <trkpt lat="46.629358001" lon="12.320527007">
        <ele>2677.9</ele>
        <time>1970-01-01T01:00:00</time>
      </trkpt>
      <trkpt lat="46.629401001" lon="12.320549007">
        <ele>2675.5</ele>
        <time>1970-01-01T01:00:00</time>
      </trkpt>
      <trkpt lat="46.629362001" lon="12.320558007">
        <ele>2674.0</ele>
        <time>1970-01-01T01:00:00</time>
      </trkpt>
      <trkpt lat="46.629346001" lon="12.320504007">
        <ele>2671.2</ele>
        <time>1970-01-01T01:00:00</time>
      </trkpt>
      <trkpt lat="46.629389001" lon="12.320531007">
        <ele>2675.0</ele>
        <time>1970-01-01T01:00:00</time>
      </trkpt>
      <trkpt lat="46.629324001" lon="12.320643007">
        <ele>2673.6</ele>
        <time>1970-01-01T01:00:00</time>
      </trkpt>
      <trkpt lat="46.629474001" lon="12.320746007">
        <ele>2668.8</ele>
        <time>1970-01-01T01:00:00</time>
      </trkpt>
      <trkpt lat="46.629339001" lon="12.321020007">
        <ele>2659.6</ele>
        <time>1970-01-01T01:00:00</time>
      </trkpt>
      <trkpt lat="46.629589001" lon="12.321273007">
        <ele>2647.6</ele>
        <time>1970-01-01T01:00:00</time>
      </trkpt>
      <trkpt lat="46.629526001" lon="12.321393007">
        <ele>2645.2</ele>
        <time>1970-01-01T01:00:00</time>
      </trkpt>
      <trkpt lat="46.629680001" lon="12.321456007">
        <ele>2639.4</ele>
        <time>1970-01-01T01:00:00</time>
      </trkpt>
      <trkpt lat="46.629511001" lon="12.322028007">
        <ele>2624.1</ele>
        <time>1970-01-01T01:00:00</time>
      </trkpt>
      <trkpt lat="46.629386001" lon="12.322203007">
        <ele>2617.3</ele>
        <time>1970-01-01T01:00:00</time>
      </trkpt>
      <trkpt lat="46.629443001" lon="12.322337007">
        <ele>2614.0</ele>
        <time>1970-01-01T01:00:00</time>
      </trkpt>
      <trkpt lat="46.629404001" lon="12.322461007">
        <ele>2609.2</ele>
        <time>1970-01-01T01:00:00</time>
      </trkpt>
      <trkpt lat="46.629498001" lon="12.322692007">
        <ele>2603.9</ele>
        <time>1970-01-01T01:00:00</time>
      </trkpt>
      <trkpt lat="46.629375001" lon="12.322838007">
        <ele>2600.0</ele>
        <time>1970-01-01T01:00:00</time>
      </trkpt>
      <trkpt lat="46.629408001" lon="12.322969007">
        <ele>2600.5</ele>
        <time>1970-01-01T01:00:00</time>
      </trkpt>
      <trkpt lat="46.629505001" lon="12.322827007">
        <ele>2601.9</ele>
        <time>1970-01-01T01:00:00</time>
      </trkpt>
      <trkpt lat="46.629456001" lon="12.323087007">
        <ele>2596.2</ele>
        <time>1970-01-01T01:00:00</time>
      </trkpt>
      <trkpt lat="46.629511001" lon="12.323046007">
        <ele>2597.1</ele>
        <time>1970-01-01T01:00:00</time>
      </trkpt>
      <trkpt lat="46.629404001" lon="12.323098007">
        <ele>2595.7</ele>
        <time>1970-01-01T01:00:00</time>
      </trkpt>
      <trkpt lat="46.629418001" lon="12.322956007">
        <ele>2600.5</ele>
        <time>1970-01-01T01:00:00</time>
      </trkpt>
      <trkpt lat="46.629363001" lon="12.322835007">
        <ele>2599.1</ele>
        <time>1970-01-01T01:00:00</time>
      </trkpt>
      <trkpt lat="46.629306001" lon="12.322863007">
        <ele>2597.1</ele>
        <time>1970-01-01T01:00:00</time>
      </trkpt>
      <trkpt lat="46.629315001" lon="12.322822007">
        <ele>2597.1</ele>
        <time>1970-01-01T01:00:00</time>
      </trkpt>
      <trkpt lat="46.629304001" lon="12.322944007">
        <ele>2593.3</ele>
        <time>1970-01-01T01:00:00</time>
      </trkpt>
      <trkpt lat="46.629206001" lon="12.323071007">
        <ele>2582.7</ele>
        <time>1970-01-01T01:00:00</time>
      </trkpt>
      <trkpt lat="46.629242001" lon="12.323091007">
        <ele>2581.8</ele>
        <time>1970-01-01T01:00:00</time>
      </trkpt>
      <trkpt lat="46.629211001" lon="12.323147007">
        <ele>2578.9</ele>
        <time>1970-01-01T01:00:00</time>
      </trkpt>
      <trkpt lat="46.629290001" lon="12.323203007">
        <ele>2574.5</ele>
        <time>1970-01-01T01:00:00</time>
      </trkpt>
      <trkpt lat="46.629326001" lon="12.323351007">
        <ele>2573.6</ele>
        <time>1970-01-01T01:00:00</time>
      </trkpt>
      <trkpt lat="46.629282001" lon="12.323244007">
        <ele>2570.7</ele>
        <time>1970-01-01T01:00:00</time>
      </trkpt>
      <trkpt lat="46.629241001" lon="12.323235007">
        <ele>2567.8</ele>
        <time>1970-01-01T01:00:00</time>
      </trkpt>
      <trkpt lat="46.629269001" lon="12.323138007">
        <ele>2568.3</ele>
        <time>1970-01-01T01:00:00</time>
      </trkpt>
      <trkpt lat="46.629160001" lon="12.323108007">
        <ele>2575.5</ele>
        <time>1970-01-01T01:00:00</time>
      </trkpt>
      <trkpt lat="46.629113001" lon="12.323121007">
        <ele>2581.8</ele>
        <time>1970-01-01T01:00:00</time>
      </trkpt>
      <trkpt lat="46.629232001" lon="12.323487007">
        <ele>2589.4</ele>
        <time>1970-01-01T01:00:00</time>
      </trkpt>
      <trkpt lat="46.629208001" lon="12.323706007">
        <ele>2591.9</ele>
        <time>1970-01-01T01:00:00</time>
      </trkpt>
      <trkpt lat="46.629071001" lon="12.323916007">
        <ele>2586.6</ele>
        <time>1970-01-01T01:00:00</time>
      </trkpt>
      <trkpt lat="46.629038001" lon="12.324145007">
        <ele>2581.3</ele>
        <time>1970-01-01T01:00:00</time>
      </trkpt>
      <trkpt lat="46.629087001" lon="12.325070007">
        <ele>2571.7</ele>
        <time>1970-01-01T01:00:00</time>
      </trkpt>
      <trkpt lat="46.629042001" lon="12.325414007">
        <ele>2569.7</ele>
        <time>1970-01-01T01:00:00</time>
      </trkpt>
      <trkpt lat="46.628838001" lon="12.326209007">
        <ele>2571.7</ele>
        <time>1970-01-01T01:00:00</time>
      </trkpt>
      <trkpt lat="46.628999001" lon="12.326923007">
        <ele>2562.1</ele>
        <time>1970-01-01T01:00:00</time>
      </trkpt>
      <trkpt lat="46.629113001" lon="12.327124007">
        <ele>2559.2</ele>
        <time>1970-01-01T01:00:00</time>
      </trkpt>
      <trkpt lat="46.629075001" lon="12.327143007">
        <ele>2556.3</ele>
        <time>1970-01-01T01:00:00</time>
      </trkpt>
      <trkpt lat="46.629055001" lon="12.327263007">
        <ele>2553.4</ele>
        <time>1970-01-01T01:00:00</time>
      </trkpt>
      <trkpt lat="46.629035001" lon="12.327724007">
        <ele>2546.2</ele>
        <time>1970-01-01T01:00:00</time>
      </trkpt>
      <trkpt lat="46.628876001" lon="12.328393007">
        <ele>2532.7</ele>
        <time>1970-01-01T01:00:00</time>
      </trkpt>
      <trkpt lat="46.628809001" lon="12.328601007">
        <ele>2527.0</ele>
        <time>1970-01-01T01:00:00</time>
      </trkpt>
      <trkpt lat="46.628523001" lon="12.329045007">
        <ele>2514.0</ele>
        <time>1970-01-01T01:00:00</time>
      </trkpt>
      <trkpt lat="46.628496001" lon="12.329246007">
        <ele>2512.5</ele>
        <time>1970-01-01T01:00:00</time>
      </trkpt>
      <trkpt lat="46.628275001" lon="12.329598007">
        <ele>2502.0</ele>
        <time>1970-01-01T01:00:00</time>
      </trkpt>
      <trkpt lat="46.628257001" lon="12.329768007">
        <ele>2502.0</ele>
        <time>1970-01-01T01:00:00</time>
      </trkpt>
      <trkpt lat="46.628008001" lon="12.330104007">
        <ele>2493.3</ele>
        <time>1970-01-01T01:00:00</time>
      </trkpt>
      <trkpt lat="46.627843001" lon="12.330386007">
        <ele>2488.5</ele>
        <time>1970-01-01T01:00:00</time>
      </trkpt>
      <trkpt lat="46.627701001" lon="12.330776007">
        <ele>2491.4</ele>
        <time>1970-01-01T01:00:00</time>
      </trkpt>
      <trkpt lat="46.627643001" lon="12.330811007">
        <ele>2482.7</ele>
        <time>1970-01-01T01:00:00</time>
      </trkpt>
      <trkpt lat="46.627594001" lon="12.330511007">
        <ele>2469.3</ele>
        <time>1970-01-01T01:00:00</time>
      </trkpt>
      <trkpt lat="46.627492001" lon="12.330403007">
        <ele>2462.1</ele>
        <time>1970-01-01T01:00:00</time>
      </trkpt>
      <trkpt lat="46.627480001" lon="12.330241007">
        <ele>2455.8</ele>
        <time>1970-01-01T01:00:00</time>
      </trkpt>
      <trkpt lat="46.627435001" lon="12.330212007">
        <ele>2452.9</ele>
        <time>1970-01-01T01:00:00</time>
      </trkpt>
      <trkpt lat="46.627300001" lon="12.329416007">
        <ele>2420.7</ele>
        <time>1970-01-01T01:00:00</time>
      </trkpt>
      <trkpt lat="46.627208001" lon="12.329175007">
        <ele>2408.7</ele>
        <time>1970-01-01T01:00:00</time>
      </trkpt>
      <trkpt lat="46.627184001" lon="12.328999007">
        <ele>2405.4</ele>
        <time>1970-01-01T01:00:00</time>
      </trkpt>
      <trkpt lat="46.627110001" lon="12.328810007">
        <ele>2400.1</ele>
        <time>1970-01-01T01:00:00</time>
      </trkpt>
      <trkpt lat="46.626530001" lon="12.327939007">
        <ele>2375.1</ele>
        <time>1970-01-01T01:00:00</time>
      </trkpt>
      <trkpt lat="46.626349001" lon="12.327805007">
        <ele>2366.9</ele>
        <time>1970-01-01T01:00:00</time>
      </trkpt>
      <trkpt lat="46.626246001" lon="12.327472007">
        <ele>2362.6</ele>
        <time>1970-01-01T01:00:00</time>
      </trkpt>
      <trkpt lat="46.626090001" lon="12.327170007">
        <ele>2354.4</ele>
        <time>1970-01-01T01:00:00</time>
      </trkpt>
      <trkpt lat="46.625918001" lon="12.327007007">
        <ele>2342.9</ele>
        <time>1970-01-01T01:00:00</time>
      </trkpt>
      <trkpt lat="46.625668001" lon="12.326686007">
        <ele>2328.0</ele>
        <time>1970-01-01T01:00:00</time>
      </trkpt>
      <trkpt lat="46.625406001" lon="12.326460007">
        <ele>2314.0</ele>
        <time>1970-01-01T01:00:00</time>
      </trkpt>
      <trkpt lat="46.625280001" lon="12.326586007">
        <ele>2305.4</ele>
        <time>1970-01-01T01:00:00</time>
      </trkpt>
      <trkpt lat="46.625184001" lon="12.326613007">
        <ele>2300.1</ele>
        <time>1970-01-01T01:00:00</time>
      </trkpt>
      <trkpt lat="46.624702001" lon="12.326413007">
        <ele>2277.0</ele>
        <time>1970-01-01T01:00:00</time>
      </trkpt>
      <trkpt lat="46.624544001" lon="12.326236007">
        <ele>2271.3</ele>
        <time>1970-01-01T01:00:00</time>
      </trkpt>
      <trkpt lat="46.624377001" lon="12.326174007">
        <ele>2265.5</ele>
        <time>1970-01-01T01:00:00</time>
      </trkpt>
      <trkpt lat="46.624408001" lon="12.326178007">
        <ele>2263.6</ele>
        <time>1970-01-01T01:00:00</time>
      </trkpt>
      <trkpt lat="46.624411001" lon="12.326124007">
        <ele>2263.6</ele>
        <time>1970-01-01T01:00:00</time>
      </trkpt>
      <trkpt lat="46.624361001" lon="12.325918007">
        <ele>2257.8</ele>
        <time>1970-01-01T01:00:00</time>
      </trkpt>
      <trkpt lat="46.624145001" lon="12.325754007">
        <ele>2247.7</ele>
        <time>1970-01-01T01:00:00</time>
      </trkpt>
      <trkpt lat="46.624056001" lon="12.325746007">
        <ele>2244.8</ele>
        <time>1970-01-01T01:00:00</time>
      </trkpt>
      <trkpt lat="46.623938001" lon="12.325615007">
        <ele>2240.0</ele>
        <time>1970-01-01T01:00:00</time>
      </trkpt>
      <trkpt lat="46.623710001" lon="12.325463007">
        <ele>2233.3</ele>
        <time>1970-01-01T01:00:00</time>
      </trkpt>
      <trkpt lat="46.623635001" lon="12.325448007">
        <ele>2231.8</ele>
        <time>1970-01-01T01:00:00</time>
      </trkpt>
      <trkpt lat="46.623521001" lon="12.325197007">
        <ele>2230.9</ele>
        <time>1970-01-01T01:00:00</time>
      </trkpt>
      <trkpt lat="46.623513001" lon="12.324880007">
        <ele>2230.9</ele>
        <time>1970-01-01T01:00:00</time>
      </trkpt>
      <trkpt lat="46.623339001" lon="12.324116007">
        <ele>2231.4</ele>
        <time>1970-01-01T01:00:00</time>
      </trkpt>
      <trkpt lat="46.623179001" lon="12.324292007">
        <ele>2230.9</ele>
        <time>1970-01-01T01:00:00</time>
      </trkpt>
      <trkpt lat="46.622892001" lon="12.324473007">
        <ele>2229.9</ele>
        <time>1970-01-01T01:00:00</time>
      </trkpt>
      <trkpt lat="46.622743001" lon="12.324521007">
        <ele>2231.4</ele>
        <time>1970-01-01T01:00:00</time>
      </trkpt>
      <trkpt lat="46.622494001" lon="12.324466007">
        <ele>2236.6</ele>
        <time>1970-01-01T01:00:00</time>
      </trkpt>
      <trkpt lat="46.622226001" lon="12.324278007">
        <ele>2244.3</ele>
        <time>1970-01-01T01:00:00</time>
      </trkpt>
      <trkpt lat="46.621999001" lon="12.324210007">
        <ele>2247.7</ele>
        <time>1970-01-01T01:00:00</time>
      </trkpt>
      <trkpt lat="46.621821001" lon="12.324038007">
        <ele>2251.5</ele>
        <time>1970-01-01T01:00:00</time>
      </trkpt>
      <trkpt lat="46.621398001" lon="12.323845007">
        <ele>2254.9</ele>
        <time>1970-01-01T01:00:00</time>
      </trkpt>
      <trkpt lat="46.621163001" lon="12.323450007">
        <ele>2264.5</ele>
        <time>1970-01-01T01:00:00</time>
      </trkpt>
      <trkpt lat="46.621043001" lon="12.323108007">
        <ele>2266.4</ele>
        <time>1970-01-01T01:00:00</time>
      </trkpt>
      <trkpt lat="46.620927001" lon="12.323008007">
        <ele>2269.8</ele>
        <time>1970-01-01T01:00:00</time>
      </trkpt>
      <trkpt lat="46.620573001" lon="12.322852007">
        <ele>2277.0</ele>
        <time>1970-01-01T01:00:00</time>
      </trkpt>
      <trkpt lat="46.620261001" lon="12.322524007">
        <ele>2284.7</ele>
        <time>1970-01-01T01:00:00</time>
      </trkpt>
      <trkpt lat="46.620123001" lon="12.322270007">
        <ele>2291.0</ele>
        <time>1970-01-01T01:00:00</time>
      </trkpt>
      <trkpt lat="46.619899001" lon="12.321467007">
        <ele>2304.9</ele>
        <time>1970-01-01T01:00:00</time>
      </trkpt>
      <trkpt lat="46.619851001" lon="12.320641007">
        <ele>2321.7</ele>
        <time>1970-01-01T01:00:00</time>
      </trkpt>
      <trkpt lat="46.619769001" lon="12.320312007">
        <ele>2326.0</ele>
        <time>1970-01-01T01:00:00</time>
      </trkpt>
      <trkpt lat="46.619623001" lon="12.319933007">
        <ele>2328.5</ele>
        <time>1970-01-01T01:00:00</time>
      </trkpt>
      <trkpt lat="46.619599001" lon="12.319733007">
        <ele>2330.9</ele>
        <time>1970-01-01T01:00:00</time>
      </trkpt>
      <trkpt lat="46.619300001" lon="12.319390007">
        <ele>2336.6</ele>
        <time>1970-01-01T01:00:00</time>
      </trkpt>
      <trkpt lat="46.619279001" lon="12.319229007">
        <ele>2338.5</ele>
        <time>1970-01-01T01:00:00</time>
      </trkpt>
      <trkpt lat="46.619336001" lon="12.319137007">
        <ele>2339.0</ele>
        <time>1970-01-01T01:00:00</time>
      </trkpt>
      <trkpt lat="46.619553001" lon="12.319051007">
        <ele>2341.4</ele>
        <time>1970-01-01T01:00:00</time>
      </trkpt>
      <trkpt lat="46.619619001" lon="12.318934007">
        <ele>2342.9</ele>
        <time>1970-01-01T01:00:00</time>
      </trkpt>
      <trkpt lat="46.619597001" lon="12.318463007">
        <ele>2350.6</ele>
        <time>1970-01-01T01:00:00</time>
      </trkpt>
      <trkpt lat="46.619670001" lon="12.318176007">
        <ele>2356.8</ele>
        <time>1970-01-01T01:00:00</time>
      </trkpt>
      <trkpt lat="46.619890001" lon="12.317801007">
        <ele>2369.3</ele>
        <time>1970-01-01T01:00:00</time>
      </trkpt>
      <trkpt lat="46.620082001" lon="12.317636007">
        <ele>2372.7</ele>
        <time>1970-01-01T01:00:00</time>
      </trkpt>
      <trkpt lat="46.620260001" lon="12.317335006">
        <ele>2379.9</ele>
        <time>1970-01-01T01:00:00</time>
      </trkpt>
      <trkpt lat="46.620458001" lon="12.316629006">
        <ele>2391.9</ele>
        <time>1970-01-01T01:00:00</time>
      </trkpt>
      <trkpt lat="46.620427001" lon="12.316552006">
        <ele>2394.8</ele>
        <time>1970-01-01T01:00:00</time>
      </trkpt>
      <trkpt lat="46.620535001" lon="12.316320006">
        <ele>2399.6</ele>
        <time>1970-01-01T01:00:00</time>
      </trkpt>
      <trkpt lat="46.620352001" lon="12.315979006">
        <ele>2398.1</ele>
        <time>1970-01-01T01:00:00</time>
      </trkpt>
      <trkpt lat="46.620381001" lon="12.315779006">
        <ele>2399.6</ele>
        <time>1970-01-01T01:00:00</time>
      </trkpt>
      <trkpt lat="46.620650001" lon="12.315536006">
        <ele>2398.1</ele>
        <time>1970-01-01T01:00:00</time>
      </trkpt>
      <trkpt lat="46.620801001" lon="12.315313006">
        <ele>2399.1</ele>
        <time>1970-01-01T01:00:00</time>
      </trkpt>
      <trkpt lat="46.621061001" lon="12.315078006">
        <ele>2403.0</ele>
        <time>1970-01-01T01:00:00</time>
      </trkpt>
      <trkpt lat="46.621067001" lon="12.314931006">
        <ele>2403.4</ele>
        <time>1970-01-01T01:00:00</time>
      </trkpt>
      <trkpt lat="46.621001001" lon="12.314679006">
        <ele>2402.5</ele>
        <time>1970-01-01T01:00:00</time>
      </trkpt>
      <trkpt lat="46.620897001" lon="12.314503006">
        <ele>2401.0</ele>
        <time>1970-01-01T01:00:00</time>
      </trkpt>
      <trkpt lat="46.620675001" lon="12.314375006">
        <ele>2398.1</ele>
        <time>1970-01-01T01:00:00</time>
      </trkpt>
      <trkpt lat="46.620513001" lon="12.314173006">
        <ele>2395.3</ele>
        <time>1970-01-01T01:00:00</time>
      </trkpt>
      <trkpt lat="46.620685001" lon="12.313091006">
        <ele>2381.3</ele>
        <time>1970-01-01T01:00:00</time>
      </trkpt>
      <trkpt lat="46.620484001" lon="12.312366006">
        <ele>2372.7</ele>
        <time>1970-01-01T01:00:00</time>
      </trkpt>
      <trkpt lat="46.620467001" lon="12.312127006">
        <ele>2371.2</ele>
        <time>1970-01-01T01:00:00</time>
      </trkpt>
      <trkpt lat="46.620340001" lon="12.312010006">
        <ele>2369.3</ele>
        <time>1970-01-01T01:00:00</time>
      </trkpt>
      <trkpt lat="46.620151001" lon="12.311971006">
        <ele>2365.9</ele>
        <time>1970-01-01T01:00:00</time>
      </trkpt>
      <trkpt lat="46.619671001" lon="12.311968006">
        <ele>2360.2</ele>
        <time>1970-01-01T01:00:00</time>
      </trkpt>
      <trkpt lat="46.619514001" lon="12.311880006">
        <ele>2359.2</ele>
        <time>1970-01-01T01:00:00</time>
      </trkpt>
      <trkpt lat="46.619319001" lon="12.311855006">
        <ele>2356.3</ele>
        <time>1970-01-01T01:00:00</time>
      </trkpt>
      <trkpt lat="46.619091001" lon="12.311987006">
        <ele>2354.9</ele>
        <time>1970-01-01T01:00:00</time>
      </trkpt>
      <trkpt lat="46.618875001" lon="12.311998006">
        <ele>2353.4</ele>
        <time>1970-01-01T01:00:00</time>
      </trkpt>
      <trkpt lat="46.618647001" lon="12.312073006">
        <ele>2352.5</ele>
        <time>1970-01-01T01:00:00</time>
      </trkpt>
      <trkpt lat="46.618494001" lon="12.312081006">
        <ele>2353.4</ele>
        <time>1970-01-01T01:00:00</time>
      </trkpt>
      <trkpt lat="46.618250001" lon="12.311934006">
        <ele>2353.4</ele>
        <time>1970-01-01T01:00:00</time>
      </trkpt>
      <trkpt lat="46.618117001" lon="12.311493006">
        <ele>2355.8</ele>
        <time>1970-01-01T01:00:00</time>
      </trkpt>
      <trkpt lat="46.617971001" lon="12.311363006">
        <ele>2353.0</ele>
        <time>1970-01-01T01:00:00</time>
      </trkpt>
      <trkpt lat="46.617711001" lon="12.311006006">
        <ele>2350.1</ele>
        <time>1970-01-01T01:00:00</time>
      </trkpt>
      <trkpt lat="46.617519001" lon="12.310938006">
        <ele>2348.2</ele>
        <time>1970-01-01T01:00:00</time>
      </trkpt>
      <trkpt lat="46.617154001" lon="12.310621006">
        <ele>2347.2</ele>
        <time>1970-01-01T01:00:00</time>
      </trkpt>
      <trkpt lat="46.616579001" lon="12.310005006">
        <ele>2346.7</ele>
        <time>1970-01-01T01:00:00</time>
      </trkpt>
      <trkpt lat="46.615929001" lon="12.309696006">
        <ele>2344.3</ele>
        <time>1970-01-01T01:00:00</time>
      </trkpt>
      <trkpt lat="46.615480001" lon="12.309397006">
        <ele>2340.5</ele>
        <time>1970-01-01T01:00:00</time>
      </trkpt>
      <trkpt lat="46.615308001" lon="12.309207006">
        <ele>2338.1</ele>
        <time>1970-01-01T01:00:00</time>
      </trkpt>
      <trkpt lat="46.615179001" lon="12.308979006">
        <ele>2335.7</ele>
        <time>1970-01-01T01:00:00</time>
      </trkpt>
      <trkpt lat="46.614952001" lon="12.308781006">
        <ele>2334.2</ele>
        <time>1970-01-01T01:00:00</time>
      </trkpt>
      <trkpt lat="46.614121001" lon="12.308509006">
        <ele>2327.0</ele>
        <time>1970-01-01T01:00:00</time>
      </trkpt>
      <trkpt lat="46.613897001" lon="12.308399006">
        <ele>2326.0</ele>
        <time>1970-01-01T01:00:00</time>
      </trkpt>
      <trkpt lat="46.613553001" lon="12.307472006">
        <ele>2322.2</ele>
        <time>1970-01-01T01:00:00</time>
      </trkpt>
      <trkpt lat="46.613483001" lon="12.307155006">
        <ele>2320.3</ele>
        <time>1970-01-01T01:00:00</time>
      </trkpt>
      <trkpt lat="46.613476001" lon="12.306872006">
        <ele>2320.3</ele>
        <time>1970-01-01T01:00:00</time>
      </trkpt>
      <trkpt lat="46.613543001" lon="12.306257006">
        <ele>2316.4</ele>
        <time>1970-01-01T01:00:00</time>
      </trkpt>
      <trkpt lat="46.613534001" lon="12.305892006">
        <ele>2315.5</ele>
        <time>1970-01-01T01:00:00</time>
      </trkpt>
      <trkpt lat="46.613617001" lon="12.305499006">
        <ele>2313.5</ele>
        <time>1970-01-01T01:00:00</time>
      </trkpt>
      <trkpt lat="46.613582001" lon="12.305151006">
        <ele>2313.1</ele>
        <time>1970-01-01T01:00:00</time>
      </trkpt>
      <trkpt lat="46.613701001" lon="12.304863006">
        <ele>2312.1</ele>
        <time>1970-01-01T01:00:00</time>
      </trkpt>
      <trkpt lat="46.613899001" lon="12.304663006">
        <ele>2313.1</ele>
        <time>1970-01-01T01:00:00</time>
      </trkpt>
      <trkpt lat="46.614050001" lon="12.304429006">
        <ele>2315.0</ele>
        <time>1970-01-01T01:00:00</time>
      </trkpt>
      <trkpt lat="46.614184001" lon="12.303952006">
        <ele>2316.4</ele>
        <time>1970-01-01T01:00:00</time>
      </trkpt>
      <trkpt lat="46.614179001" lon="12.303054006">
        <ele>2317.4</ele>
        <time>1970-01-01T01:00:00</time>
      </trkpt>
      <trkpt lat="46.614250001" lon="12.301914006">
        <ele>2324.1</ele>
        <time>1970-01-01T01:00:00</time>
      </trkpt>
      <trkpt lat="46.614176001" lon="12.301056006">
        <ele>2325.6</ele>
        <time>1970-01-01T01:00:00</time>
      </trkpt>
      <trkpt lat="46.613919001" lon="12.300117006">
        <ele>2327.0</ele>
        <time>1970-01-01T01:00:00</time>
      </trkpt>
      <trkpt lat="46.613700001" lon="12.299521006">
        <ele>2326.0</ele>
        <time>1970-01-01T01:00:00</time>
      </trkpt>
      <trkpt lat="46.613620001" lon="12.298887006">
        <ele>2326.5</ele>
        <time>1970-01-01T01:00:00</time>
      </trkpt>
      <trkpt lat="46.613653001" lon="12.298529006">
        <ele>2325.6</ele>
        <time>1970-01-01T01:00:00</time>
      </trkpt>
      <trkpt lat="46.613624001" lon="12.298112006">
        <ele>2325.1</ele>
        <time>1970-01-01T01:00:00</time>
      </trkpt>
      <trkpt lat="46.613583001" lon="12.297796006">
        <ele>2326.0</ele>
        <time>1970-01-01T01:00:00</time>
      </trkpt>
      <trkpt lat="46.613328001" lon="12.296800006">
        <ele>2326.5</ele>
        <time>1970-01-01T01:00:00</time>
      </trkpt>
      <trkpt lat="46.613185001" lon="12.296617006">
        <ele>2327.0</ele>
        <time>1970-01-01T01:00:00</time>
      </trkpt>
      <trkpt lat="46.612931001" lon="12.296664006">
        <ele>2326.0</ele>
        <time>1970-01-01T01:00:00</time>
      </trkpt>
      <trkpt lat="46.612251001" lon="12.296493006">
        <ele>2329.4</ele>
        <time>1970-01-01T01:00:00</time>
      </trkpt>
    </trkseg>
  </trk>
</gpx>
